Weather History for North Las Vegas, NV

Change the Weather History Date:

Tuesday, May 14, 2013

  Actual Average Record
Temperature  
Mean Temperature 86 °F -  
Max Temperature 100 °F 88 °F 100 °F (2013)
Min Temperature 73 °F 61 °F 41 °F (1961)
Cooling Degree Days 22    
Growing Degree Days 36 (Base 50)    
Moisture  
Dew Point 23 °F    
Average Humidity 10    
Maximum Humidity 20    
Minimum Humidity 4    
Precipitation  
Precipitation 0.00 in - - ()
Sea Level Pressure  
Sea Level Pressure 29.79 in    
Wind  
Wind Speed 8 mph (SW)    
Max Wind Speed 23 mph    
Max Gust Speed 30 mph    
Visibility 10 miles    
Events      
Averages and records for this station are not official NWS values.
T = Trace of Precipitation, MM = Missing Value Source: NWS Daily Summary

Daily Weather History Graph

Daily Weather History Graph

Search for Another Location

Airport:

Trip Planner

Search our weather history database for the weather conditions in past years. The results will help you decide how hot, cold, wet, or windy it might be!

Date:

Astronomy

May. 14, 2013 Rise Set
Actual Time 5:35 AM PDT 7:39 PM PDT
Civil Twilight 5:06 AM PDT 8:08 PM PDT
Nautical Twilight 4:31 AM PDT 8:43 PM PDT
Astronomical Twilight 3:54 AM PDT 9:20 PM PDT
Moon 9:18 AM PDT (5/14) 11:30 PM PDT (5/14)
Length of Visible Light 15h 01m
Length of Day
14h 04m
Waxing Crescent, 19% of the Moon is Illuminated
May 14
Waxing Crescent
May 17
First Quarter
May 24
Full
May 31
Last Quarter
Jun 8
New

Hourly Weather History & Observations

Time (PDT) Temp. Dew Point Humidity Pressure Visibility Wind Dir Wind Speed Gust Speed Precip Events Conditions
12:53 AM 80.1 °F 26.1 °F 14% 29.83 in 10.0 mi SSE 5.8 mph - N/A   Clear
1:53 AM 80.1 °F 25.0 °F 13% 29.83 in 10.0 mi NE 4.6 mph - N/A   Clear
2:53 AM 79.0 °F 26.1 °F 14% 29.83 in 10.0 mi East 4.6 mph - N/A   Clear
3:53 AM 75.9 °F 28.9 °F 18% 29.83 in 10.0 mi Calm Calm - N/A   Clear
4:53 AM 73.0 °F 30.0 °F 20% 29.83 in 10.0 mi Calm Calm - N/A   Clear
5:53 AM 73.9 °F 30.0 °F 20% 29.84 in 10.0 mi NNW 4.6 mph - N/A   Clear
6:53 AM 75.9 °F 28.9 °F 18% 29.86 in 10.0 mi NNE 4.6 mph - N/A   Clear
7:53 AM 82.0 °F 30.9 °F 16% 29.86 in 10.0 mi NNW 3.5 mph - N/A   Clear
8:53 AM 87.1 °F 28.9 °F 12% 29.86 in 10.0 mi Calm Calm - N/A   Clear
9:53 AM 90.0 °F 28.9 °F 11% 29.86 in 10.0 mi Calm Calm - N/A   Clear
10:53 AM 93.9 °F 28.9 °F 10% 29.84 in 10.0 mi East 3.5 mph - N/A   Clear
11:53 AM 97.0 °F 23.0 °F 7% 29.82 in 10.0 mi SW 15.0 mph 20.7 mph N/A   Clear
12:53 PM 98.1 °F 23.0 °F 7% 29.81 in 10.0 mi West 12.7 mph 18.4 mph N/A   Clear
1:53 PM 100.0 °F 23.0 °F 6% 29.78 in 10.0 mi SW 21.9 mph 29.9 mph N/A   Clear
2:04 PM 98.6 °F 23.0 °F 7% 29.81 in 10.0 mi SSW 19.6 mph 28.8 mph N/A   Clear
2:53 PM 100.0 °F 21.9 °F 6% 29.75 in 10.0 mi SW 23.0 mph 28.8 mph N/A   Clear
3:53 PM 100.0 °F 21.0 °F 6% 29.73 in 10.0 mi SSW 17.3 mph 29.9 mph N/A   Clear
4:53 PM 99.0 °F 21.0 °F 6% 29.71 in 10.0 mi SW 20.7 mph 27.6 mph N/A   Clear
5:53 PM 98.1 °F 21.0 °F 6% 29.68 in 10.0 mi WSW 12.7 mph 18.4 mph N/A   Clear
6:53 PM 96.1 °F 14.0 °F 5% 29.67 in 10.0 mi WSW 12.7 mph 25.3 mph N/A   Clear
7:53 PM 93.0 °F 9.0 °F 4% 29.69 in 10.0 mi WSW 17.3 mph 24.2 mph N/A   Clear
8:53 PM 89.1 °F 10.0 °F 5% 29.72 in 10.0 mi WSW 10.4 mph 20.7 mph N/A   Clear
9:53 PM 86.0 °F 14.0 °F 7% 29.75 in 10.0 mi SW 13.8 mph - N/A   Clear
10:53 PM 82.9 °F 23.0 °F 11% 29.75 in 10.0 mi West 20.7 mph - N/A   Clear
11:53 PM 80.1 °F 23.0 °F 12% 29.78 in 10.0 mi SW 10.4 mph - N/A   Clear